Regional Weather Roundup
Issued by NWS Green Bay, WI

Home | Current Version | Previous Version | Text Only | Print | Product List | Glossary On
Versions: 1 2 3 4 5 6 7 8 9 10 11 12 13 14 15 16 17 18 19 20 21 22 23 24 25 26 27 28 29 30 31 32 33 34 35 36 37 38 39 40 41 42 43 44 45 46 47 48 49 50
000
ASUS43 KGRB 020359
RWRGRB

NORTH-CENTRAL AND NORTHEAST WISCONSIN REGIONAL WEATHER ROUNDUP
NATIONAL WEATHER SERVICE GREEN BAY WI
1100 PM CDT WED APR 01 2015

WIZ005-009-010>012-018-019-020500-
NORTH CENTRAL WISCONSIN

CITY           SKY/WX    TMP DP  RH WIND       PRES   REMARKS
IRONWOOD       CLOUDY    61  43  51 SW25G41   29.45S
MANITOWISH WTR NOT AVBL
ARBOR VITAE    NOT AVBL
EAGLE RIVER    NOT AVBL
LAND O LAKES   NOT AVBL
RHINELANDER    CLOUDY    53  37  54 N6        29.62R
PHILLIPS       TSTM      58  39  48 SW8       29.61R
ANTIGO         NOT AVBL
TOMAHAWK       NOT AVBL
MERRILL        NOT AVBL
$$

WIZ013-073-020500-
NORTHEAST WISCONSIN

CITY           SKY/WX    TMP DP  RH WIND       PRES   REMARKS
IRON MOUNTAIN  CLOUDY    41  33  73 NE3       29.62F
MARINETTE      CLOUDY    54  37  54 SW15G21   29.65R
$$

WIZ017-030-035>037-045-020500-
CENTRAL WISCONSIN

CITY           SKY/WX    TMP DP  RH WIND       PRES   REMARKS
MEDFORD        NOT AVBL
WAUSAU         MOCLDY    64  33  31 S14G24    29.59S
MOSINEE        NOT AVBL
MARSHFIELD     MOCLDY    65  34  31 S22G28    29.60F
WISC RAPIDS    PTCLDY    65  31  28 S17G25    29.64R
STEVENS POINT  NOT AVBL
WAUPACA        NOT AVBL
SHAWANO        NOT AVBL
CLINTONVILLE   CLEAR     61  36  39 S18       29.64S
$$

WIZ038-039-048-051-020500-
FOX VALLEY

CITY           SKY/WX    TMP DP  RH WIND       PRES   REMARKS
NWS GREEN BAY  PTCLDY    56  40  55 S15G22    29.66F
APPLETON       PTCLDY    61  36  39 S17G25    29.69R
OSHKOSH        CLEAR     61  39  44 S20G31    29.68S
FOND DU LAC    CLEAR     62  39  42 S23G32    29.69F
$$

WIZ022-050-052-020500-
EAST CENTRAL WISCONSIN

CITY           SKY/WX    TMP DP  RH WIND       PRES   REMARKS
STURGEON BAY   CLOUDY    48  37  66 S15G23    29.69F
MANITOWOC      NOT AVBL
SHEBOYGAN      CLEAR     53  38  56 S17       29.72F
$$

LMZ563-521-522-541>543-020500-
LAKESHORE

STATION/POSITION TIME  TEMP    WIND        PRES    VSBY  WAVE
                       AIR SEA DIR/SP/G                  HT/PER
                 (UTC) (F)     (DEG/KT/KT) (MB)    (MI)  (FT/S)
SHEBOYGAN LKSHOR 0300   43     180/ 24/ 25 1007.6F
KEWAUNEE LKSHORE 0300   44     190/ 16/ 18 1005.3F
NORTHPORT PIER   0300   39     150/ 12/ 16 1005.8F
SISTER BAY LKSHO 0300   45     190/ 21/ 28   N/A
CHAMBERS ISLAND  0300   51     160/  9/ 20 1004.4F
MENOMINEE LKSHOR 0300   46     180/ 11     1004.7F
$$



USA.gov is the U.S. government's official web portal to all federal, state and local government web resources and services.